Regional Weather Roundup
Issued by NWS State College, PA

Home | Current Version | Previous Version | Graphics & Text | Print | Product List | Glossary On
Versions: 1 2 3 4 5 6 7 8 9 10 11 12 13 14 15 16 17 18 19 20 21 22 23 24 25 26 27 28 29 30 31 32 33 34 35 36 37 38 39 40 41 42 43 44 45 46 47 48 49 50
000
ASUS41 KCTP 262110
RWRCTP

REGIONAL WEATHER ROUNDUP
NATIONAL WEATHER SERVICE STATE COLLEGE PA
400 PM EST FRI DEC 26 2014

Note: "fair" indicates few or no clouds below 12,000 feet with no
significant weather and/or obstructions to visibility.

* = STATION THAT DOES NOT REPORT PRECIPITATION /E.G. RAIN...SNOW...ETC/
    THUNDER OR FOG.

PAZ002>004-007>009-013>016-020>023-029>032-262200-
WESTERN PENNSYLVANIA

CITY           SKY/WX    TMP DP  RH WIND       PRES   REMARKS
ERIE           CLEAR     49  31  49 S15G24    30.11S
MEADVILLE      CLEAR     46  31  55 S10       30.13R
FRANKLIN*      CLEAR     45  30  57 S9        30.16S
NEW CASTLE       N/A     48  32  54 S6        30.18R
BEAVER COUNTY  CLEAR     48  34  57 S6        30.17R
BUTLER*        CLEAR     46  30  53 S10G18    30.19S
PITTSBURGH INT PTCLDY    49  30  48 SW13G20   30.18R
PITTSBURGH     CLEAR     49  27  42 SW13      30.17S
INDIANA*       CLEAR     46  32  57 SW7       30.21R
LATROBE        PTCLDY    48  32  53 SW14      30.20S
WASHINGTON CO* NOT AVBL
$$

PAZ004>006-010>012-017>019-024>028-033>037-041-042-045-046-049>053-262200-
CENTRAL PENNSYLVANIA

CITY           SKY/WX    TMP DP  RH WIND       PRES   REMARKS
BRADFORD       CLEAR     43  27  53 S8        30.12R
DUBOIS         CLEAR     44  30  57 SW13      30.15R
CLEARFIELD     CLEAR     47  28  47 SW7       30.16S
JOHNSTOWN      CLEAR     46  24  42 W9        30.15S
ALTOONA        CLEAR     46  32  58 S6        30.17S
STATE COLLEGE  CLEAR     46  28  49 SW8       30.16S
WILLIAMSPORT   CLEAR     45  29  53 CALM      30.18F
SELINSGROVE    CLEAR     47  31  53 S6        30.20S
FT INDIANTOWN  CLEAR     47  31  53 SW8       30.21R
CAPITAL CITY   CLEAR     49  30  48 SW5       30.22R
HARRISBURG     PTCLDY    46  32  58 CALM      30.22R
YORK           CLEAR     49  30  48 SW5       30.22R
$$

PAZ038>040-043-044-047-048-054-055-060>062-067>071-262200-
EASTERN PENNSYLVANIA

CITY           SKY/WX    TMP DP  RH WIND       PRES   REMARKS
SCRANTON       CLEAR     45  27  49 SW8       30.18R
MOUNT POCONO   CLEAR     42  25  50 W8        30.15R
ALLENTOWN      CLEAR     47  29  49 SW8       30.20S
QUAKERTOWN*    NOT AVBL
READING        CLEAR     47  30  51 SW7       30.21R
LANCASTER      CLEAR     46  30  53 SW5       30.22R
COATESVILLE    CLEAR     46  32  57 W5        30.22S
POTTSTOWN      CLEAR     47  30  51 SW8       30.23R
BLUE BELL      CLEAR     48  32  53 SW6       30.21S
DOYLESTOWN     CLEAR     46  30  53 W5        30.20S
WILLOW GROVE   NOT AVBL
NORTH PHILA    CLEAR     50  28  42 W8        30.23S
PHILADELPHIA   PTCLDY    49  31  49 W9        30.24R
$$



USA.gov is the U.S. government's official web portal to all federal, state and local government web resources and services.